Home   Weather   Paradise   Past weeks
Flag for USA

Past Weather in Paradise, Nevada, USA — Yesterday and Last 2 Weeks

Now
98 °F

Passing clouds.


Feels Like: 94 °F
Forecast: 102 / 76 °F
Wind: 7 mph from North

Location: McCarran International Airport

Current Time: Jun 15, 2019 at 2:18:28 pm

Latest Report: Jun 15, 2019 at 12:56 pm


Visibility: 10 mi

Pressure: 29.75 "Hg (27.71 "Hg at 643m altitude)

Humidity: 14%

Dew Point: 41 °F

Location of ParadiseLocation

Past Weather in Paradise — Graph

°F

Paradise Temperature Yesterday

Maximum temperature yesterday: 98 °F (at 12:56 pm)
Minimum temperature yesterday: 80 °F (at 3:56 am)
Average temperature yesterday: 89 °F

High & Low Weather Summary for the Past Weeks

 TemperatureHumidityPressure
High106 °F (Jun 12, 3:56 pm)32% (Jun 2, 5:56 am)30.16 "Hg (Jun 2, 5:56 am)
Low68 °F (Jun 1, 5:56 am)3% (Jun 13, 3:56 pm)29.58 "Hg (Jun 13, 6:56 pm)
Average87 °F15%29.78 "Hg
* Reported May 31 12:56 pm — Jun 15 12:56 pm, Paradise. Weather by CustomWeather, © 2019

Note: Actual official high and low records may vary slightly from our data, if they occured in-between our weather recording intervals... More about our weather records

Advertising

Paradise Weather History for the Previous 24 Hours

Scroll right to see more
 ConditionsComfort  
Time TempWeatherWind HumidityBarometerVisibility
12:56 pm
Sat, Jun 15
98 °FPassing clouds.7 mph14%29.75 "Hg10 mi
11:56 am94 °FPassing clouds.No wind17%29.78 "Hg10 mi
10:56 am93 °FPassing clouds.No wind18%29.78 "Hg10 mi
9:56 am91 °FPassing clouds.6 mph19%29.78 "Hg10 mi
8:56 am88 °FPassing clouds.No wind20%29.79 "Hg10 mi
7:56 am84 °FSunny.3 mph23%29.78 "Hg10 mi
6:56 am79 °FPassing clouds.3 mph28%29.77 "Hg10 mi
5:56 am76 °FPassing clouds.6 mph31%29.75 "Hg10 mi
4:56 am77 °FPassing clouds.6 mph31%29.74 "Hg10 mi
3:56 am77 °FClear.3 mph31%29.72 "Hg10 mi
2:56 am79 °FClear.5 mph27%29.71 "Hg10 mi
1:56 am80 °FPassing clouds.No wind26%29.70 "Hg10 mi
12:56 am81 °FPassing clouds.3 mph25%29.70 "Hg10 mi
11:56 pm
Fri, Jun 14
83 °FPassing clouds.3 mph26%29.70 "Hg10 mi
10:56 pm87 °FPassing clouds.5 mph21%29.69 "Hg10 mi
9:56 pm88 °FPassing clouds.5 mph18%29.68 "Hg10 mi
8:56 pm90 °FPassing clouds.5 mph18%29.67 "Hg10 mi
7:56 pm91 °FScattered clouds.7 mph15%29.65 "Hg10 mi
6:56 pm93 °FBroken clouds.13 mph15%29.65 "Hg10 mi
5:56 pm96 °FPartly sunny.13 mph11%29.64 "Hg10 mi
4:56 pm92 °FBroken clouds.26 mph14%29.67 "Hg10 mi
3:58 pm95 °FBroken clouds.15 mph9%29.75 "Hg10 mi
3:32 pm95 °FBroken clouds.5 mph10%29.78 "Hg10 mi
2:56 pm95 °FBroken clouds.No wind14%29.68 "Hg10 mi
Weather by CustomWeather, © 2019

See weather overview